Погода Кочубей

Погода Кочубей : погода сейчас, прогноз погоды и архив. Всё, что Вы хотите узнать о погоде Кочубей!

Поиск расширенной информации на нашем сайте:

Другие новости

Новости СМИ2

Главная страница сайта

Новости сайта

02.10.2013

Напоминаем, что на нашем новом сайте вы можете получить высокодетализированные прогнозы погоды по пунктам России, СНГ и мира (включающие важные для авиации метеовеличины, такие как направление и скорость ветра, видимость, явления погоды, количество и форма облачности, нижняя и верхняя граница облачности), а также ознакомиться с разнообразными материалами по авиационной метеорологии и подборкой полезных ссылок на эту тему.

Сайт Метеоцентр.Азия посвящён разработке технологий оптимизации авиаметеорологического обслуживания, включая проектирование и перспективное создание нескольких автоматизированных авиаметеорологических систем:
- система выпуска высокодетальных прогностических карт явлений погоды для нижнего воздушного пространства по России и ближнему зарубежью;
- система верификации прогнозов TAF (выпускаемых синоптиками официальных АМСГ РФ и ближнего зарубежья) и AUTOTAF (выпускаемых сайтом Метеоцентр.Азия) - выявление ошибок, онлайн-сопоставление с фактической погодой METAR, автоматическое внесение коррективов в прогнозы при резком отклонении фактической погоды от прогноза, подсчёт оправдываемости прогнозов по элементам и в целом;
- система обработки, анализа и отображения авиаметеорологической информации для применения провайдерами метеорологической информации.

Рекомендуем: Закупка услуг по изготовлению бланков.

Погода Кочубей - сегодня

Время (UTC), дата Ветер
(°,м/с) 
Видим.   Явления Облачность Т
(°С)
Тd
(°С)
f(%) Тe
(°С)
Pmin
(гПа)
dP
(гПа)
Po
(мм)
O2
(г/м3)
Тmin Tmax R s Состояние
почвы
09 25.06.17 290 (З) 20000 м  {ливн. осадки}  10/8 600 м кучево-дожд., верхняя 
[Cb calv|Ci sp]
+27.4 +14.5 45 +35  1012.4  0.5  761  276           
12 25.06.17 300 (СЗ) 6{11}  20000 м  {ливн. осадки}  10/8 600 м кучево-дожд., средняя, верхняя 
[Cb calv|Ac trans|Ci fib]
+28.4 +13.7 41 +35  1012.2  -0.2  761  275           
15 25.06.17 310 (СЗ) 6{11}  20000 м    8/6 600 м кучево-дожд., средняя, верхняя 
[Cb calv|Ac trans|Ci fib]
+26.3 +14.8 49 +34  1013.5  1.3  762  277    +29.2  0.0     
18 25.06.17 010 (С) 4000 м    4/0 средняя 
[Ac trans]
+22 +15 64 +30  1016.1  2.7  764  282           
21 25.06.17 010 (С) 4000 м    ясно 
+16.2 +13.3 83 +23  1017.9  1.8  765  289           
00 26.06.17 290 (З) 4000 м    ясно 
+13.9 +12.6 92 +19  1018.1  0.3  766  291           
03 26.06.17 330 (СЗ) 20000 м    ясно 
+15.8 +13.8 88 +23  1018.7  0.5  766  289  +13        сухая 
06 26.06.17 100 (В) 20000 м    ясно 
+25.2 +5.4 28 +25  1018.7  0.1  766  282           
09 26.06.17 090 (В) 6{11}  20000 м    ясно 
+27.4 +7.1 28 +27  1018.3  -0.4  766  279           
12 26.06.17 110 (В) 7-12{12}  20000 м    ясно 
+27.1 +6 26 +27  1017.7  -0.5  765  280           
15 26.06.17 120 (ЮВ) 6{12}  20000 м    ясно 
+25.3 +8.1 33 +25  1017.3  -0.5  765  281    +27.8       
18 26.06.17 090 (В) 4000 м    ясно 
+19 +11.4 61 +23  1017.5  0.3  765  286           
21 26.06.17 110 (В) 4000 м    ясно 
+16.6 +13 79 +22  1016.4  -1  764  288           
00 27.06.17 090 (В) 4000 м    ясно 
+14.9 +12.6 86 +20  1015.3  -1.2  763  289           
03 27.06.17 090 (В) 20000 м    ясно 
+20.5 +16.5 78 +31  1014.9  -0.4  763  282  +14.1        сухая 
06 27.06.17 100 (В) 7{12}  20000 м    ясно 
+27.1 +12.4 40 +31  1014.3  -0.7  763  277           
09 27.06.17 110 (В) 7-11{11}  20000 м    ясно 
+29.3 +15 42 +38  1012.8  -1.4  761  274           
12 27.06.17 110 (В) 8-12{12}  20000 м    ясно 
+29.7 +12.7 35 +34  1011.2  -1.6  760  274           
15 27.06.17 100 (В) 8-12  20000 м    3/0 верхняя 
[Ci fib]
+26.4 +17.2 57 +39  1010.9  -0.3  760  275    +30.2       
18 27.06.17 090 (В) 2{12}  4000 м    6/4 600 м верхняя 
[Sc|Ci fib]
+22.2 +17.5 75 +35  1012.8  1.9  761  280           
21 27.06.17 150 (ЮВ) 4000 м    4/0 верхняя 
[Ci fib]
+22.1 +18.4 80 +37  1011.9  -0.9  761  279           
00 28.06.17 330 (СЗ) 4000 м    ясно 
+18.8 +17.4 92 +33  1011.2  -0.6  760  283           
03 28.06.17 060 (СВ) 20000 м    3/0 верхняя 
[Ci fib]
+22.4 +18.8 80 +38  1010.7  -0.5  760  279  +17.2        сухая 
06 28.06.17 070 (В) 20000 м    4/3 600 м верхняя 
[Sc|Cc]
+27.9 +18.2 56 +42  1010.4  -0.3  760  274           
09 28.06.17 060 (СВ) 20000 м    3/0 средняя 
[Ac trans]
+30.5 +17.3 45 +43  1010  -0.5  759  271           
Время (UTC), дата Ветер
(°,м/с) 
Видим.   Явления Облачность Т
(°С)
Тd
(°С)
f(%) Тe
(°С)
Pmin
(гПа)
dP
(гПа)
Po
(мм)
O2
(г/м3)
Тmin Tmax R s Состояние
почвы

Для получения пояснительной информации подведите курсор к названию столбца.

ПОГОДА Кочубей - архив

Всё, что Вы хотите узнать о погоде Кочубей - удобно и подробно!

Выберите нужную дату (начиная с 1 января 2015* года) и нажмите кнопку "Найти".
Будут отображены архивные сводки погоды по пункту Кочубей, начиная с указанной даты.


Отображать данные в формате CSV (для использования в таблицах Excel)


Внимание! Наш архив погоды предназначен исключительно для личного некоммерческого использования в познавательных целях. Если Вам необходимы официальные справки о состоянии погоды (для производственных, юридических, коммерческих и т.п. целей), обращайтесь в органы Росгидромета.

*Примечание: данная дата относится к архиву по метеостанциям СССР (Россия, СНГ, Балтия).
Архив по метеостанциям Зарубежной Европы и Азии (кроме Китая) хранится 10 дней, по другим регионам земного шара (Китай, Африка, Америка, Австралия, Океания) - 1 день.

Кочубей - район местоположения метеостанции


Название, широта, долгота, высота метеостанции:
Кочубей 44.4°ш. 46.6°д. -21 м над ур. моря [Российская Федерация]

Дополнительная информация

В oтличие oт бoльшинства пoгoдных сайтoв мы публикуем пoдрoбную метеoинфoрмацию в детальнoм прoфессиoнальнoм фoрмате.

Характеристики температуры и влажнoсти вoздуха измеряются на высoте 2 м в тени вдали oт зданий и деревьев.
Скoрoсть ветра измеряется на высoте 10 м (на урoвне рoста челoвека скoрoсть ветра ниже в 1.5-2 раза). Если метеoстанция нахoдится в гoрoде или в лесу, тo скoрoсть ветра занижена на 2-4 м/с пo сравнению с oткрытым местoм. Скoрoсть ветра над акватoриями крупных рек и oзёр, а также на вершинах хoлмoв на 2-5 м/с выше, чем в oбычных услoвиях.
Атмoсфернoе давление в разных тoчках местнoсти мoжет значительнo oтличаться oт давления на метеoстанции, в зависимoсти oт услoвий рельефа (при пoдъёме на 10 м давление пoнижается примернo на 1 мм рт.ст.).